Observations for Trim Market St
| Time | AQI | Temp °C | Hum % | Pres Pa | CO μg/m³ | H₂S μg/m³ | NO μg/m³ | NO₂ μg/m³ | O₃ μg/m³ | SO₂ μg/m³ | PM1 μg/m³ | PM2.5 μg/m³ | PM10 μg/m³ |
|---|---|---|---|---|---|---|---|---|---|---|---|---|---|
| Tuesday 11 August 2026 | |||||||||||||
| 06:50 | 2 | 13 | 76 | 38,378 | 1.64 | 0.94 | 7.43 | 34.56 | 27.64 | 0 | 2.14 | 3.26 | 5.75 |
| 06:49 | 2 | 12.9 | 76 | 39,579 | 2.73 | 12.62 | 7.99 | 43.93 | 26.85 | 0 | 2.14 | 4.22 | 6.94 |
| 06:48 | 2 | 12.9 | 76 | 41,050 | 9.87 | 72.45 | 6.68 | 64.98 | 10.25 | 0 | 2.14 | 4.23 | 7.53 |
| 06:47 | 2 | 12.8 | 76 | 42,217 | 0 | 161.87 | 5.42 | 57.93 | 10.56 | 43.92 | 1.43 | 3.75 | 6.34 |
| 06:46 | 2 | 12.7 | 75 | 43,014 | 25.99 | 111.41 | 3.47 | 40.63 | 4.05 | 22.86 | 2.14 | 3.76 | 6.94 |
| 06:45 | 2 | 12.7 | 75 | 43,374 | 5.25 | 7.94 | 3.62 | 28.08 | 24.13 | 0 | 2.85 | 3.76 | 6.94 |
| 06:44 | 2 | 12.7 | 75 | 43,528 | 0.43 | 0 | 3.83 | 14.66 | 25.86 | 0 | 2.14 | 3.28 | 6.94 |
| 06:43 | 2 | 12.7 | 75 | 43,554 | 0.43 | 0 | 3.72 | 19.13 | 24.07 | 0 | 2.14 | 3.76 | 6.34 |
| 06:42 | 2 | 12.7 | 75 | 43,590 | 0.42 | 0 | 3.74 | 15.74 | 37.82 | 0 | 2.14 | 3.76 | 6.94 |
| 06:39 | 2 | 12.6 | 75 | 43,603 | 0.43 | 0 | 3.79 | 16.56 | 23.84 | 0 | 2.14 | 3.28 | 6.34 |
| 06:38 | 2 | 12.6 | 75 | 43,743 | 0.46 | 0 | 3.79 | 18.86 | 25.63 | 0 | 2.14 | 3.76 | 6.94 |
| 06:37 | 2 | 12.6 | 75 | 43,846 | 0.44 | 0 | 3.72 | 18.54 | 19.63 | 0 | 2.14 | 3.76 | 6.34 |
| 06:33 | 2 | 12.6 | 75 | 44,301 | 0.49 | 0 | 3.84 | 15.37 | 27.02 | 0 | 2.85 | 4.23 | 7.53 |
| 06:24 | 2 | 12.4 | 75 | 45,111 | 0.39 | 0 | 3.86 | 13.93 | 25.72 | 0 | 2.14 | 3.76 | 6.34 |
| 06:23 | 2 | 12.4 | 75 | 45,119 | 0.39 | 0 | 3.86 | 13.93 | 27.49 | 0 | 2.85 | 4.72 | 9.32 |
| 06:22 | 2 | 12.4 | 75 | 45,158 | 0.4 | 0 | 3.85 | 14.33 | 27.64 | 0 | 2.14 | 3.76 | 6.34 |
| 06:21 | 2 | 12.4 | 75 | 45,189 | 0.42 | 0 | 3.83 | 17.99 | 19.63 | 0 | 2.14 | 3.77 | 6.34 |
| 06:20 | 2 | 12.5 | 75 | 45,234 | 0.45 | 0 | 3.78 | 14.04 | 23.66 | 0 | 2.14 | 3.76 | 6.34 |
| 06:19 | 2 | 12.4 | 75 | 45,240 | 0.4 | 0 | 3.89 | 13.38 | 25.01 | 0 | 2.14 | 3.28 | 5.74 |
| 06:18 | 2 | 12.4 | 75 | 45,230 | 0.39 | 0 | 3.89 | 14.54 | 28.85 | 0 | 1.43 | 4.24 | 6.94 |